Location: Mahannah Oil Field
(37.4664°N, 96.6003°W)
Time: 02:24:39
(UTC+00:00)

X-37B - Pass Details

Date: 04 December 2020
Orbit: 383 x 391 km, 45.1° (Epoch: 22 January)

Event Time Altitude Azimuth Distance (km) Brightness Sun altitude
Rises 00:43:43 0° 295° (WNW) 2,260 5.3 -18.5°
Reaches altitude 10° 00:46:08 10° 313° (NW) 1,408 3.8 -19.0°
Enters shadow 00:47:59 19° 348° (NNW) 986 2.6 -19.3°
